{"data":{"norad_id":68726,"epoch":"2026-05-25T04:00:03.998880Z","epoch_age_seconds":61384,"freshness":"FRESH","line1":"1 68726U 26081AD  26145.16671295 -.02032728  00000+0 -48770-1 0  9993","line2":"2 68726  53.1605  38.7741 0001106 124.9184 209.3852 15.44335278  6016","mean_motion":15.44335278,"eccentricity":0.0001106,"inclination_deg":53.1605,"raan_deg":38.7741,"arg_perigee_deg":124.9184,"mean_anomaly_deg":209.3852,"bstar":-0.04877,"rev_number":601,"period_min":93.244000866501,"perigee_km":432.57857825508,"apogee_km":434.08527518167,"semimajor_km":6811.4689267184,"source":"CELESTRAK","updated_at":"2026-05-25T13:38:22.003802Z"}}